TimeCST,TemperatureF,Dew PointF,Humidity,Sea Level PressureIn,VisibilityMPH,Wind Direction,Wind SpeedMPH,Gust SpeedMPH,PrecipitationIn,Events,Conditions,WindDirDegrees,DateUTC
12:54 AM,30.0,23.0,75,29.73,3.0,NNW,21.9,32.2,N/A,,Haze,340,2013-01-30 06:54:00
1:39 AM,28.4,23.0,80,29.70,2.0,North,20.7,31.1,0.00,Snow,Light Snow,350,2013-01-30 07:39:00
1:54 AM,28.0,21.9,78,29.73,0.8,North,23.0,-,0.00,Snow,Light Snow,350,2013-01-30 07:54:00
2:25 AM,26.6,23.0,86,29.72,0.5,NNW,21.9,-,0.00,Fog-Snow,Snow,340,2013-01-30 08:25:00
2:47 AM,26.6,23.0,86,29.73,0.2,NNW,24.2,-,0.00,Fog-Snow,Snow,340,2013-01-30 08:47:00
2:54 AM,26.1,23.0,88,29.74,0.2,NNW,17.3,-,0.00,Fog-Snow,Snow,340,2013-01-30 08:54:00
3:17 AM,24.8,21.2,86,29.73,0.2,North,28.8,36.8,0.01,Fog-Snow,Snow,350,2013-01-30 09:17:00
3:28 AM,24.8,21.2,86,29.73,0.5,North,28.8,39.1,0.01,Fog-Snow,Light Snow,350,2013-01-30 09:28:00
3:54 AM,25.0,21.0,85,29.76,0.5,North,25.3,32.2,0.01,Fog-Snow,Light Snow,350,2013-01-30 09:54:00
4:11 AM,24.8,21.2,86,29.75,0.8,North,23.0,-,0.00,Snow,Light Snow,350,2013-01-30 10:11:00
4:54 AM,24.1,19.9,84,29.77,1.0,North,27.6,32.2,0.00,Snow,Light Snow,350,2013-01-30 10:54:00
5:41 AM,24.8,17.6,74,29.76,3.0,NNW,26.5,33.4,0.00,Snow,Light Snow,340,2013-01-30 11:41:00
5:54 AM,25.0,16.0,69,29.78,8.0,NNW,31.1,35.7,0.00,,Overcast,340,2013-01-30 11:54:00
6:54 AM,24.1,16.0,71,29.80,3.0,NNW,29.9,39.1,0.00,Snow,Blowing Snow,340,2013-01-30 12:54:00
7:54 AM,24.1,17.1,75,29.82,5.0,NNW,20.7,28.8,0.00,Snow,Light Snow,330,2013-01-30 13:54:00
8:54 AM,23.0,15.1,72,29.84,7.0,NNW,24.2,28.8,0.00,,Overcast,340,2013-01-30 14:54:00
9:54 AM,24.1,15.1,69,29.85,10.0,NNW,24.2,32.2,0.00,,Overcast,330,2013-01-30 15:54:00
10:54 AM,24.1,15.1,69,29.86,10.0,NW,26.5,32.2,0.00,,Overcast,320,2013-01-30 16:54:00
11:54 AM,24.1,15.1,69,29.87,9.0,NW,24.2,-,N/A,,Overcast,310,2013-01-30 17:54:00
12:54 PM,24.1,15.1,69,29.86,10.0,NW,24.2,29.9,N/A,,Overcast,310,2013-01-30 18:54:00
1:54 PM,25.0,15.1,66,29.85,10.0,NW,24.2,28.8,N/A,,Overcast,320,2013-01-30 19:54:00
2:54 PM,25.0,14.0,63,29.86,10.0,NW,21.9,28.8,N/A,,Overcast,310,2013-01-30 20:54:00
3:54 PM,24.1,14.0,65,29.87,9.0,WNW,21.9,26.5,N/A,,Scattered Clouds,300,2013-01-30 21:54:00
4:54 PM,23.0,12.9,65,29.89,10.0,NW,17.3,-,N/A,,Overcast,320,2013-01-30 22:54:00
5:54 PM,21.0,12.0,68,29.90,10.0,NW,12.7,-,N/A,,Overcast,320,2013-01-30 23:54:00
6:54 PM,18.0,10.0,71,29.93,10.0,NW,13.8,-,N/A,,Clear,310,2013-01-31 00:54:00
7:54 PM,17.1,9.0,71,29.93,10.0,NW,11.5,-,N/A,,Mostly Cloudy,320,2013-01-31 01:54:00
8:54 PM,17.1,9.0,71,29.94,10.0,NW,8.1,-,N/A,,Overcast,310,2013-01-31 02:54:00
9:54 PM,14.0,6.1,71,29.95,10.0,NW,13.8,-,N/A,,Partly Cloudy,320,2013-01-31 03:54:00
10:54 PM,12.9,5.0,71,29.97,10.0,NNW,5.8,-,N/A,,Clear,340,2013-01-31 04:54:00
11:54 PM,12.0,3.9,70,29.98,10.0,NW,16.1,-,N/A,,Clear,320,2013-01-31 05:54:00